Regional Weather Roundup
Issued by NWS

Home | Current Version | Previous Version | Text Only | Print | Product List | Glossary On
Versions: 1 2 3 4 5 6 7 8 9 10 11 12 13 14 15 16 17 18 19 20 21 22 23 24 25 26 27 28 29 30 31 32 33 34 35 36 37 38 39 40 41 42 43 44 45 46 47 48 49 50
000
ASUS43 KDTX 170610
RWRMI
MICHIGAN HOURLY REGIONAL WEATHER ROUNDUP
NATIONAL WEATHER SERVICE DETROIT/PONTIAC MI
200 AM EDT WED SEP 17 2014

NOTE: "FAIR" INDICATES FEW OR NO CLOUDS BELOW 12,000 FEET WITH NO
SIGNIFICANT WEATHER AND/OR OBSTRUCTION TO VISIBILITY.

MIZ047>049-052>055-059>063-066>070-074>076-081>083-170700-
SOUTHEAST LOWER MICHIGAN

CITY           SKY/WX    TMP DP  RH WIND       PRES   REMARKS
ADRIAN         CLEAR     45  43  93 CALM      30.09F
6HR MIN TEMP:  45; 6HR MAX TEMP:  58;

ALMA           CLEAR     40  39  97 CALM      30.07F FOG
ANN ARBOR      CLEAR     40  37  89 W3        30.08S FOG
BAD AXE        CLEAR     44  44  99 CALM      30.06S
6HR MIN TEMP:  40; 6HR MAX TEMP:  54;

CARO           CLEAR     41  40  97 CALM      30.06S FOG
DETROIT CITY   CLEAR     54  45  71 W3        30.08S
6HR MIN TEMP:  52; 6HR MAX TEMP:  64;

DETROIT        CLEAR     50  44  80 CALM      30.08F
6HR MIN TEMP:  50; 6HR MAX TEMP:  60;

FLINT          CLEAR     47  42  83 CALM      30.08S
6HR MIN TEMP:  44; 6HR MAX TEMP:  58;

GROSSE ILE     CLEAR     52  46  82 CALM      30.07S
HILLSDALE      CLEAR     40  40 100 CALM      30.08S FOG
6HR MIN TEMP:  40; 6HR MAX TEMP:  55;

HOWELL         CLEAR     43  41  94 CALM      30.08S
6HR MIN TEMP:  43; 6HR MAX TEMP:  55;


CITY           SKY/WX    TMP DP  RH WIND       PRES   REMARKS
JACKSON        CLEAR     43  41  93 CALM      30.08F
6HR MIN TEMP:  43; 6HR MAX TEMP:  55;

LAMBERTVILLE   CLEAR     45  43  93 CALM      30.09S FOG
LANSING        CLEAR     44  41  89 CALM      30.09S
6HR MIN TEMP:  44; 6HR MAX TEMP:  54;

LAPEER         FAIR      42  41  98 CALM      30.07S FOG
MASON          CLEAR     42  41  96 CALM      30.08S
MONROE         CLEAR     46  45  93 CALM      30.07S
MT. CLEMENS    CLEAR     51  44  77 CALM      30.06S
6HR MIN TEMP:  50; 6HR MAX TEMP:  58;

PONTIAC        CLEAR     49  42  77 CALM      30.07S
6HR MIN TEMP:  49; 6HR MAX TEMP:  59;

PORT HOPE        N/A     49  43  80 SW5       30.03S
6HR MIN TEMP:  49; 6HR MAX TEMP:  53;

PORT HURON       N/A     41  41 100 CALM      30.06F FOG
TRI CITIES     CLEAR     46  42  86 SW3       30.07F
6HR MIN TEMP:  46; 6HR MAX TEMP:  58;

TROY           CLEAR     53  42  67 W5        30.09R
SAGINAW HB     CLEAR     45  43  93 CALM      30.06S
$$
MIZ043>046-050>051-056>058-064>065-071>073-077>080-170700-
SOUTHWEST LOWER MICHIGAN

CITY           SKY/WX    TMP DP  RH WIND       PRES   REMARKS
BATTLE CREEK   CLEAR     43  40  89 CALM      30.09S
6HR MIN TEMP:  43; 6HR MAX TEMP:  56;

BENTON HARBOR  CLEAR     40  40 100 CALM      30.08F
6HR MIN TEMP:  40; 6HR MAX TEMP:  52;

BIG RAPIDS     CLEAR     40  40 100 CALM      30.06F
6HR MIN TEMP:  40; 6HR MAX TEMP:  53;

COLDWATER      CLEAR     44  44  97 MISG      30.09S
6HR MIN TEMP:  44; 6HR MAX TEMP:  59;

FREMONT        FAIR      41  40  98 CALM      30.07S
6HR MIN TEMP:  40; 6HR MAX TEMP:  52;

HOLLAND        CLEAR     42  40  92 CALM      30.09S
6HR MIN TEMP:  42; 6HR MAX TEMP:  53;

GRAND RAPIDS   CLEAR     43  40  89 CALM      30.08F
6HR MIN TEMP:  43; 6HR MAX TEMP:  54;

IONIA          FAIR      45  42  90 SW3       30.07S
KALAMAZOO      CLEAR     43  40  89 CALM      30.09F
6HR MIN TEMP:  42; 6HR MAX TEMP:  56;

LUDINGTON      CLEAR     42  41  97 CALM      30.06S
6HR MIN TEMP:  41; 6HR MAX TEMP:  55;

MARSHALL       FOG       40  40 100 S3        30.08F VSB 3/4
MOUNT PLEASANT CLEAR     41  40  97 SW3       30.06S
6HR MIN TEMP:  40; 6HR MAX TEMP:  52;

MUSKEGON       CLEAR     45  41  86 CALM      30.08F
6HR MIN TEMP:  44; 6HR MAX TEMP:  52;

SOUTH HAVEN    CLEAR     42  42  97 CALM      30.08S
$$
MIZ016>042-170700-
NORTHERN LOWER MICHIGAN

CITY           SKY/WX    TMP DP  RH WIND       PRES   REMARKS
ALPENA         CLEAR     49  41  74 SW5       30.01S
6HR MIN TEMP:  47; 6HR MAX TEMP:  56;

BEAVER ISLAND    N/A     49  48  98 CALM      29.99F FOG
6HR MIN TEMP:  49; 6HR MAX TEMP:  60;

BELLAIRE       PTCLDY    50  45  83 SW3       30.02S
6HR MIN TEMP:  47; 6HR MAX TEMP:  56;

CADILLAC       CLEAR     40  40  99 SW3       30.04F
CHARLEVOIX     CLEAR     56  51  84 SW7       30.02F
6HR MIN TEMP:  55; 6HR MAX TEMP:  57;

FRANKFORT      CLEAR     59  48  67 W6        30.03F
GAYLORD        CLEAR     45  41  86 SW6       30.02S
6HR MIN TEMP:  45; 6HR MAX TEMP:  51;

GRAYLING       CLEAR     42  42  99 CALM      30.04S
6HR MIN TEMP:  40; 6HR MAX TEMP:  54;

HARBOR SPRINGS CLEAR     54  47  79 SW7       30.00F
HOUGHTON LAKE  CLEAR     49  41  74 SW7       30.04F
6HR MIN TEMP:  48; 6HR MAX TEMP:  56;

MANISTEE       CLEAR     41  37  87 E3        30.05S
OSCODA         CLEAR     46  42  85 W5        30.02S
PELLSTON       MOCLDY    52  47  83 E3        30.00S
6HR MIN TEMP:  50; 6HR MAX TEMP:  56;

ROGERS CITY    CLEAR     49  45  84 SW8       30.00S
TRAVERSE CITY  MOCLDY    52  45  77 SW6       30.01F
6HR MIN TEMP:  51; 6HR MAX TEMP:  56;

$$
MIZ007>008-015-170700-
EASTERN UPPER MICHIGAN

CITY           SKY/WX    TMP DP  RH WIND       PRES   REMARKS
KINROSS        MOCLDY    48  48 100 CALM      29.99S
6HR MIN TEMP:  48; 6HR MAX TEMP:  55;

MACKINAC ISLAN CLEAR     49  48  96 N6        29.98F
6HR MIN TEMP:  49; 6HR MAX TEMP:  59;

NEWBERRY       PTCLDY    45  44  96 W6        29.99S
6HR MIN TEMP:  45; 6HR MAX TEMP:  55;

S. S. MARIE    PTCLDY    45  43  93 CALM      29.98F
6HR MIN TEMP:  45; 6HR MAX TEMP:  57;

MUNISING         N/A     47  43  86 S6        29.99F
6HR MIN TEMP:  47; 6HR MAX TEMP:  59;

$$
MIZ004>006-011>014-085-170700-
CENTRAL UPPER MICHIGAN

CITY           SKY/WX    TMP DP  RH WIND       PRES   REMARKS
MANISTIQUE     CLOUDY    47  44  90 CALM      29.99S
ESCANABA       CLOUDY    45  41  87 NW3       30.00S
6HR MIN TEMP:  45; 6HR MAX TEMP:  59;

MENOMINEE      CLEAR     52  43  71 W5        30.00F
6HR MIN TEMP:  50; 6HR MAX TEMP:  61;

SAWYER-GWINN   CLEAR     46  43  90 CALM      29.99F
6HR MIN TEMP:  45; 6HR MAX TEMP:  56;

$$
MIZ001>003-009>011-084-170700-
WESTERN UPPER MICHIGAN

CITY           SKY/WX    TMP DP  RH WIND       PRES   REMARKS
IRON MOUNTAIN  CLOUDY    52  43  71 W5        29.99S
6HR MIN TEMP:  50; 6HR MAX TEMP:  61;

HOUGHTON       CLOUDY    48  44  86 E10       29.97F
6HR MIN TEMP:  47; 6HR MAX TEMP:  53;

COPPER HARBOR    N/A     47  41  80 CALM      30.00F
6HR MIN TEMP:  45; 6HR MAX TEMP:  52; 6HR PCP:  0.01;

IRONWOOD       CLOUDY    54  45  71 SW8       29.96S
6HR MIN TEMP:  54; 6HR MAX TEMP:  61;

$$

ABBREVIATIONS USED IN REMARKS
   TC - TEMPERATURE IN CELSIUS
  WCI - WIND CHILL INDEX
   HX - HEAT INDEX
  VSB - VISIBILITY




USA.gov is the U.S. government's official web portal to all federal, state and local government web resources and services.